TimeEDT,TemperatureF,Dew PointF,Humidity,Sea Level PressureIn,VisibilityMPH,Wind Direction,Wind SpeedMPH,Gust SpeedMPH,PrecipitationIn,Events,Conditions,WindDirDegrees,DateUTC
12:15 AM,60.8,55.4,82,29.90,5.0,Calm,Calm,-,N/A,,Clear,0,2013-08-28 04:15:00
12:35 AM,59.0,55.4,88,29.90,4.0,Calm,Calm,-,N/A,,Clear,0,2013-08-28 04:35:00
12:55 AM,59.0,55.4,88,29.90,4.0,Calm,Calm,-,N/A,,Clear,0,2013-08-28 04:55:00
1:15 AM,60.8,55.4,82,29.90,8.0,Calm,Calm,-,N/A,,Clear,0,2013-08-28 05:15:00
1:35 AM,59.0,55.4,88,29.89,5.0,Calm,Calm,-,N/A,,Clear,0,2013-08-28 05:35:00
1:55 AM,59.0,53.6,82,29.89,3.0,West,3.5,-,N/A,,Clear,260,2013-08-28 05:55:00
2:15 AM,57.2,53.6,88,29.89,4.0,Calm,Calm,-,N/A,,Clear,0,2013-08-28 06:15:00
2:55 AM,57.2,53.6,88,29.88,1.2,Calm,Calm,-,N/A,,Clear,0,2013-08-28 06:55:00
3:15 AM,57.2,53.6,88,29.88,5.0,Calm,Calm,-,N/A,,Clear,0,2013-08-28 07:15:00
3:35 AM,57.2,53.6,88,29.87,5.0,Calm,Calm,-,N/A,,Clear,0,2013-08-28 07:35:00
3:55 AM,57.2,53.6,88,29.87,4.0,Calm,Calm,-,N/A,,Clear,0,2013-08-28 07:55:00
4:15 AM,55.4,51.8,88,29.88,3.0,Calm,Calm,-,N/A,,Clear,0,2013-08-28 08:15:00
4:35 AM,55.4,53.6,94,29.88,4.0,Calm,Calm,-,N/A,,Clear,0,2013-08-28 08:35:00
4:55 AM,55.4,51.8,88,29.88,5.0,Calm,Calm,-,N/A,,Clear,0,2013-08-28 08:55:00
5:15 AM,55.4,51.8,88,29.88,1.2,Calm,Calm,-,N/A,,Clear,0,2013-08-28 09:15:00
5:35 AM,55.4,51.8,88,29.89,4.0,Calm,Calm,-,N/A,,Clear,0,2013-08-28 09:35:00
5:55 AM,55.4,51.8,88,29.89,4.0,Calm,Calm,-,N/A,,Clear,0,2013-08-28 09:55:00
6:15 AM,55.4,51.8,88,29.90,2.5,West,3.5,-,N/A,,Clear,270,2013-08-28 10:15:00
6:35 AM,57.2,53.6,88,29.90,1.8,WSW,3.5,-,N/A,,Mostly Cloudy,250,2013-08-28 10:35:00
6:55 AM,57.2,53.6,88,29.91,3.0,Calm,Calm,-,N/A,,Partly Cloudy,0,2013-08-28 10:55:00
7:15 AM,62.6,57.2,82,29.91,4.0,Calm,Calm,-,N/A,,Mostly Cloudy,0,2013-08-28 11:15:00
7:35 AM,66.2,60.8,83,29.91,7.0,Calm,Calm,-,N/A,,Mostly Cloudy,0,2013-08-28 11:35:00
7:55 AM,68.0,60.8,78,29.91,10.0,Calm,Calm,-,N/A,,Mostly Cloudy,0,2013-08-28 11:55:00
8:15 AM,69.8,60.8,73,29.90,10.0,Calm,Calm,-,N/A,,Scattered Clouds,0,2013-08-28 12:15:00
8:35 AM,69.8,62.6,78,29.91,10.0,Calm,Calm,-,N/A,,Clear,0,2013-08-28 12:35:00
8:55 AM,71.6,62.6,73,29.91,10.0,Calm,Calm,-,N/A,,Clear,0,2013-08-28 12:55:00
9:15 AM,73.4,62.6,69,29.92,10.0,East,5.8,-,N/A,,Unknown,90,2013-08-28 13:15:00
9:35 AM,73.4,64.4,73,29.92,10.0,NE,3.5,-,N/A,,Unknown,50,2013-08-28 13:35:00
9:55 AM,75.2,62.6,65,29.92,10.0,East,3.5,-,N/A,,Unknown,90,2013-08-28 13:55:00
10:15 AM,75.2,64.4,69,29.91,10.0,Calm,Calm,-,N/A,,Clear,0,2013-08-28 14:15:00
10:35 AM,78.8,64.4,61,29.92,10.0,SW,4.6,-,N/A,,Clear,230,2013-08-28 14:35:00
11:15 AM,78.8,64.4,61,29.92,10.0,East,5.8,-,N/A,,Clear,80,2013-08-28 15:15:00
11:35 AM,78.8,64.4,61,29.91,10.0,Calm,Calm,-,N/A,,Clear,0,2013-08-28 15:35:00
11:55 AM,80.6,64.4,58,29.91,10.0,East,5.8,-,N/A,,Unknown,90,2013-08-28 15:55:00
12:15 PM,78.8,64.4,61,29.90,10.0,East,4.6,-,N/A,,Unknown,90,2013-08-28 16:15:00
12:36 PM,80.6,64.4,58,29.90,10.0,ESE,5.8,-,N/A,,Unknown,120,2013-08-28 16:36:00
12:55 PM,80.6,64.4,58,29.90,10.0,SE,4.6,-,N/A,,Unknown,130,2013-08-28 16:55:00
1:15 PM,78.8,64.4,61,29.90,10.0,ESE,6.9,-,N/A,,Unknown,120,2013-08-28 17:15:00
1:35 PM,78.8,62.6,57,29.90,10.0,SSE,8.1,-,N/A,,Unknown,150,2013-08-28 17:35:00
1:55 PM,78.8,60.8,54,29.90,10.0,SE,5.8,-,N/A,,Unknown,140,2013-08-28 17:55:00
2:15 PM,78.8,62.6,57,29.89,10.0,SSE,6.9,-,N/A,,Unknown,160,2013-08-28 18:15:00
2:35 PM,77.0,60.8,57,29.89,10.0,SE,4.6,-,N/A,,Unknown,140,2013-08-28 18:35:00
2:55 PM,78.8,62.6,57,29.88,10.0,East,10.4,-,N/A,,Unknown,100,2013-08-28 18:55:00
3:15 PM,78.8,62.6,57,29.89,10.0,East,9.2,-,N/A,,Unknown,90,2013-08-28 19:15:00
3:35 PM,77.0,60.8,57,29.89,10.0,ESE,8.1,-,N/A,,Unknown,120,2013-08-28 19:35:00
3:55 PM,75.2,60.8,61,29.89,10.0,SE,5.8,-,N/A,,Unknown,130,2013-08-28 19:55:00
4:15 PM,73.4,62.6,69,29.89,10.0,ESE,6.9,-,N/A,,Unknown,110,2013-08-28 20:15:00
4:35 PM,73.4,60.8,65,29.89,10.0,SE,4.6,-,N/A,,Unknown,130,2013-08-28 20:35:00
4:55 PM,73.4,62.6,69,29.89,10.0,South,5.8,-,N/A,,Unknown,170,2013-08-28 20:55:00
5:15 PM,71.6,60.8,69,29.90,10.0,ESE,3.5,-,N/A,,Unknown,120,2013-08-28 21:15:00
5:35 PM,71.6,60.8,69,29.90,10.0,South,3.5,-,N/A,,Unknown,170,2013-08-28 21:35:00
5:55 PM,69.8,60.8,73,29.91,10.0,SSE,3.5,-,N/A,,Unknown,150,2013-08-28 21:55:00
6:15 PM,68.0,60.8,78,29.92,10.0,Calm,Calm,-,N/A,,Unknown,0,2013-08-28 22:15:00
6:35 PM,68.0,60.8,78,29.92,10.0,Calm,Calm,-,N/A,,Unknown,0,2013-08-28 22:35:00
6:55 PM,66.2,60.8,83,29.92,10.0,Calm,Calm,-,N/A,,Unknown,0,2013-08-28 22:55:00
7:15 PM,66.2,60.8,83,29.94,10.0,ENE,5.8,-,N/A,,Unknown,60,2013-08-28 23:15:00
7:35 PM,64.4,60.8,88,29.94,10.0,Calm,Calm,-,N/A,,Unknown,0,2013-08-28 23:35:00
7:55 PM,64.4,60.8,88,29.95,10.0,ENE,5.8,-,N/A,,Unknown,70,2013-08-28 23:55:00
8:15 PM,64.4,60.8,88,29.96,10.0,SE,3.5,-,N/A,,Unknown,130,2013-08-29 00:15:00
8:35 PM,64.4,60.8,88,29.97,10.0,Calm,Calm,-,N/A,,Unknown,0,2013-08-29 00:35:00
8:55 PM,64.4,60.8,88,29.98,6.0,Calm,Calm,-,0.04,,Unknown,0,2013-08-29 00:55:00
9:15 PM,64.4,60.8,88,29.98,5.0,Calm,Calm,-,0.03,,Overcast,0,2013-08-29 01:15:00
9:35 PM,64.4,60.8,88,30.00,5.0,NNE,6.9,-,0.05,,Overcast,20,2013-08-29 01:35:00
9:55 PM,64.4,62.6,94,30.00,5.0,NE,10.4,-,0.07,,Overcast,40,2013-08-29 01:55:00
10:15 PM,64.4,62.6,94,30.01,6.0,NNE,6.9,-,0.02,,Overcast,20,2013-08-29 02:15:00
10:35 PM,64.4,60.8,88,30.01,3.0,Calm,Calm,-,0.03,,Overcast,0,2013-08-29 02:35:00
10:55 PM,64.4,62.6,94,30.01,5.0,West,5.8,-,0.07,,Overcast,280,2013-08-29 02:55:00
11:15 PM,64.4,62.6,94,30.00,5.0,Calm,Calm,-,0.01,,Overcast,0,2013-08-29 03:15:00
11:35 PM,66.2,62.6,88,29.99,7.0,Calm,Calm,-,0.02,,Overcast,0,2013-08-29 03:35:00
11:55 PM,66.2,62.6,88,29.99,7.0,North,5.8,-,0.02,,Overcast,360,2013-08-29 03:55:00